TimeMST,TemperatureF,Dew PointF,Humidity,Sea Level PressureIn,VisibilityMPH,Wind Direction,Wind SpeedMPH,Gust SpeedMPH,PrecipitationIn,Events,Conditions,WindDirDegrees,DateUTC
12:15 AM,32.0,26.6,80,30.31,10.0,South,11.5,-,N/A,,Clear,170,2013-01-06 07:15:00
12:35 AM,30.2,26.6,86,30.31,10.0,South,11.5,-,N/A,,Clear,170,2013-01-06 07:35:00
12:55 AM,30.2,26.6,86,30.31,10.0,South,11.5,-,N/A,,Clear,170,2013-01-06 07:55:00
1:15 AM,30.2,26.6,86,30.31,10.0,SSE,13.8,-,N/A,,Clear,160,2013-01-06 08:15:00
1:35 AM,28.4,26.6,93,30.31,10.0,SSE,15.0,-,N/A,,Clear,160,2013-01-06 08:35:00
1:55 AM,28.4,26.6,93,30.32,10.0,SSE,12.7,-,N/A,,Clear,160,2013-01-06 08:55:00
2:15 AM,28.4,26.6,93,30.32,10.0,SSE,12.7,-,N/A,,Clear,160,2013-01-06 09:15:00
2:35 AM,28.4,24.8,86,30.31,10.0,SSE,12.7,-,N/A,,Clear,160,2013-01-06 09:35:00
2:55 AM,28.4,24.8,86,30.32,10.0,South,13.8,18.4,N/A,,Clear,170,2013-01-06 09:55:00
3:15 AM,28.4,24.8,86,30.32,10.0,SSE,13.8,-,N/A,,Clear,160,2013-01-06 10:15:00
3:35 AM,28.4,24.8,86,30.32,10.0,SSE,13.8,-,N/A,,Clear,160,2013-01-06 10:35:00
3:55 AM,28.4,23.0,80,30.32,10.0,South,12.7,-,N/A,,Clear,170,2013-01-06 10:55:00
4:15 AM,28.4,23.0,80,30.31,10.0,SSE,11.5,-,N/A,,Clear,160,2013-01-06 11:15:00
4:35 AM,26.6,23.0,86,30.31,10.0,SSE,10.4,-,N/A,,Clear,160,2013-01-06 11:35:00
4:55 AM,26.6,21.2,80,30.31,10.0,SSE,13.8,-,N/A,,Clear,160,2013-01-06 11:55:00
5:35 AM,28.4,21.2,74,30.31,10.0,SSE,12.7,17.3,N/A,,Clear,160,2013-01-06 12:35:00
5:55 AM,26.6,21.2,80,30.31,10.0,SSE,10.4,-,N/A,,Clear,160,2013-01-06 12:55:00
6:15 AM,26.6,21.2,80,30.31,10.0,SSE,11.5,-,N/A,,Clear,150,2013-01-06 13:15:00
6:35 AM,26.6,21.2,80,30.32,10.0,SSE,11.5,-,N/A,,Clear,150,2013-01-06 13:35:00
6:55 AM,26.6,21.2,80,30.32,10.0,SSE,15.0,-,N/A,,Clear,150,2013-01-06 13:55:00
7:15 AM,26.6,19.4,74,30.32,10.0,SSE,12.7,-,N/A,,Clear,150,2013-01-06 14:15:00
7:35 AM,26.6,19.4,74,30.32,10.0,SSE,12.7,-,N/A,,Clear,150,2013-01-06 14:35:00
7:55 AM,28.4,19.4,69,30.32,10.0,SE,12.7,-,N/A,,Clear,140,2013-01-06 14:55:00
8:15 AM,30.2,21.2,69,30.32,10.0,SSE,13.8,19.6,N/A,,Clear,150,2013-01-06 15:15:00
8:35 AM,32.0,21.2,64,30.32,10.0,SSE,17.3,21.9,N/A,,Clear,150,2013-01-06 15:35:00
8:55 AM,32.0,23.0,69,30.32,10.0,SSE,19.6,25.3,N/A,,Clear,150,2013-01-06 15:55:00
9:15 AM,33.8,23.0,65,30.32,10.0,SSE,15.0,24.2,N/A,,Clear,150,2013-01-06 16:15:00
9:35 AM,37.4,23.0,56,30.32,10.0,SE,20.7,26.5,N/A,,Clear,140,2013-01-06 16:35:00
9:55 AM,41.0,23.0,49,30.32,10.0,SE,23.0,32.2,N/A,,Clear,140,2013-01-06 16:55:00
10:15 AM,42.8,21.2,42,30.33,10.0,SE,21.9,28.8,N/A,,Clear,130,2013-01-06 17:15:00
10:35 AM,44.6,19.4,37,30.32,10.0,ESE,23.0,31.1,N/A,,Clear,120,2013-01-06 17:35:00
10:55 AM,44.6,19.4,37,30.30,10.0,SE,25.3,34.5,N/A,,Clear,130,2013-01-06 17:55:00
11:15 AM,44.6,19.4,37,30.29,10.0,ESE,23.0,31.1,N/A,,Clear,120,2013-01-06 18:15:00
11:35 AM,44.6,19.4,37,30.28,10.0,SE,26.5,32.2,N/A,,Clear,130,2013-01-06 18:35:00
11:55 AM,46.4,21.2,37,30.26,10.0,ESE,25.3,33.4,N/A,,Clear,120,2013-01-06 18:55:00
12:15 PM,46.4,19.4,34,30.25,10.0,ESE,27.6,34.5,N/A,,Clear,120,2013-01-06 19:15:00
12:35 PM,46.4,19.4,34,30.23,10.0,ESE,27.6,35.7,N/A,,Clear,120,2013-01-06 19:35:00
12:55 PM,48.2,19.4,32,30.22,10.0,SE,25.3,31.1,N/A,,Clear,130,2013-01-06 19:55:00
1:15 PM,46.4,17.6,32,30.21,10.0,ESE,24.2,33.4,N/A,,Clear,120,2013-01-06 20:15:00
1:35 PM,46.4,19.4,34,30.20,10.0,ESE,24.2,32.2,N/A,,Clear,120,2013-01-06 20:35:00
1:55 PM,48.2,21.2,34,30.19,10.0,ESE,25.3,29.9,N/A,,Clear,120,2013-01-06 20:55:00
2:15 PM,46.4,19.4,34,30.18,10.0,SE,21.9,28.8,N/A,,Clear,130,2013-01-06 21:15:00
2:35 PM,46.4,19.4,34,30.17,10.0,SE,25.3,32.2,N/A,,Clear,130,2013-01-06 21:35:00
2:55 PM,46.4,21.2,37,30.16,10.0,SE,24.2,29.9,N/A,,Clear,130,2013-01-06 21:55:00
3:35 PM,44.6,21.2,39,30.15,10.0,ESE,25.3,34.5,N/A,,Clear,120,2013-01-06 22:35:00
3:55 PM,44.6,19.4,37,30.15,10.0,ESE,26.5,33.4,N/A,,Clear,120,2013-01-06 22:55:00
4:15 PM,44.6,19.4,37,30.15,10.0,SE,20.7,32.2,N/A,,Clear,130,2013-01-06 23:15:00
4:35 PM,42.8,17.6,36,30.14,10.0,SE,20.7,29.9,N/A,,Clear,130,2013-01-06 23:35:00
4:55 PM,42.8,17.6,36,30.14,10.0,SE,18.4,27.6,N/A,,Clear,130,2013-01-06 23:55:00
5:15 PM,41.0,19.4,42,30.13,10.0,SE,18.4,25.3,N/A,,Clear,130,2013-01-07 00:15:00
5:35 PM,41.0,19.4,42,30.13,10.0,SE,19.6,25.3,N/A,,Clear,140,2013-01-07 00:35:00
5:55 PM,39.2,21.2,49,30.14,10.0,SE,15.0,23.0,N/A,,Clear,140,2013-01-07 00:55:00
6:15 PM,37.4,23.0,56,30.13,10.0,SE,18.4,21.9,N/A,,Clear,130,2013-01-07 01:15:00
6:35 PM,37.4,23.0,56,30.13,10.0,SE,17.3,-,N/A,,Clear,130,2013-01-07 01:35:00
6:55 PM,37.4,23.0,56,30.12,10.0,SE,17.3,21.9,N/A,,Clear,130,2013-01-07 01:55:00
7:15 PM,37.4,23.0,56,30.11,10.0,SE,15.0,21.9,N/A,,Clear,130,2013-01-07 02:15:00
7:35 PM,37.4,24.8,60,30.12,10.0,SE,17.3,20.7,N/A,,Clear,140,2013-01-07 02:35:00
7:55 PM,35.6,24.8,65,30.11,10.0,SE,15.0,-,N/A,,Clear,140,2013-01-07 02:55:00
8:15 PM,37.4,26.6,65,30.10,10.0,SE,17.3,25.3,N/A,,Clear,140,2013-01-07 03:15:00
8:55 PM,37.4,24.8,60,30.08,10.0,SE,21.9,25.3,N/A,,Scattered Clouds,140,2013-01-07 03:55:00
9:15 PM,39.2,23.0,52,30.09,10.0,SE,20.7,26.5,N/A,,Scattered Clouds,140,2013-01-07 04:15:00
9:35 PM,39.2,23.0,52,30.09,10.0,ESE,17.3,21.9,N/A,,Clear,120,2013-01-07 04:35:00
9:55 PM,41.0,23.0,49,30.08,10.0,ESE,17.3,25.3,N/A,,Clear,120,2013-01-07 04:55:00
10:35 PM,42.8,23.0,46,30.06,10.0,ESE,20.7,26.5,N/A,,Clear,120,2013-01-07 05:35:00
10:55 PM,41.0,23.0,49,30.05,10.0,SE,18.4,28.8,N/A,,Clear,130,2013-01-07 05:55:00
11:15 PM,37.4,23.0,56,30.04,10.0,SSE,19.6,24.2,N/A,,Clear,150,2013-01-07 06:15:00
11:35 PM,37.4,23.0,56,30.03,10.0,SE,20.7,24.2,N/A,,Clear,140,2013-01-07 06:35:00
11:55 PM,37.4,23.0,56,30.03,10.0,SE,17.3,25.3,N/A,,Clear,140,2013-01-07 06:55:00